Tracking 19275 objects as of 12-Nov-2018
HD Live streaming from Space Station
objects crossing your sky now

BEIDOU 1B

Track BEIDOU 1B now!
BEIDOU 1B is classified as:


NORAD ID: 26643
Int'l Code: 2000-082A
Perigee: 35,741.2 km
Apogee: 36,423.9 km
Inclination: 8.7 °
Period: 1,450.9 minutes
Semi major axis: 42453 km
RCS: 0.1238 m2 (medium)
Launch date: December 20, 2000
Source: People's Republic of China (PRC)
Launch site: Xichang Space Center, China (XSC)

Space-bsaed navigation and positioning system to improve accuracy of weapons and situational awareness of military forces.
aabbcc
Your satellite tracking list
Your tracking list is empty




NASA's NSSDC Master Catalog

Two Line Element Set (TLE):
1 26643U 00082A   18314.71432528 -.00000109 +00000-0 +00000-0 0  9991
2 26643 008.7089 044.8505 0080400 018.7621 341.4297 00.99250244024537
Source of the keplerian elements: AFSPC